STARLINK-36898, 68002

Orbit data source: Space-Track

STARLINK-36898, 68002 is a payload satellite owned by SpaceX/Seattle (US) in LEO that was launched on Fri, 27 Feb 2026 UTC via an FALCON 9 launch vehicle from the Air Force Eastern Test Range (AFETR). Payload-class satellites include a variety of spacecraft equipped with specific instruments for various scientific and technological missions. These include communications satellites like Starlink; space stations such as the ISS; scientific satellites like the Hubble; Earth observation satellites from companies like Planet Labs, Umbra, and HawkEye 360; GPS; miniature CubeSats for education and research; and military/defense satellites.

Loading next visibility...
Identifier
68002, 2026-039S
Orbit
LEO
Country
Flag of USUS
Related business
Manufacturer
SpaceX/Seattle
Mission
Operational Commercial Communications
Bus & Motor
STARLINK V2MO, Unknown motor
Mass
575 kg wet, ~530 kg dry
Launch date (UTC)
2026-02-27 (4 months ago)
Launch vehicle
FALCON 9
Launch site
Air Force Eastern Test Range (AFETR)
Object type
Payload
Rocket body
Debris
Shape & HBR
Box + 2 Pan, 17.7 m
Radar Cross Section
36.964 m², Large (>1 m²)

Expand to show TLE details & history
Last TLE update: 18 hours ago

TLE from 18 hours ago
0 STARLINK-36898
1 68002U 26039S   26171.10897432  .00015192  00000-0  56012-3 0  9992
2 68002  43.0014 190.8207 0001228 244.5799 115.4926 15.27598990 17360
Epoch: 2026-06-20T02:36Z
TLE epoch observation values (Epoch: 2026-06-20T02:36:55.381Z)
Latitude
0.00002°
Longitude
-116.73836°
Altitude
483.13 km
Speed
7.625 km/s
True Right ascension
12h 43m 16s
True Declination
0° 00' 00"
Sunlit
Object was in daylight at epoch
Visualization orbit readout
Latitude
Unknown
Longitude
Unknown
Altitude
Unknown
Speed
Unknown
Apparent Right ascension
Unknown
Apparent Declination
Unknown
Sunlit
N/A
Visualization observer readout
Local Sidereal Time
07:18:32
Azimuth
Unknown
Elevation
Unknown
Doppler factor
Unknown
Orbital elements
Apogee altitude
485.78 km
Perigee altitude
484.094 km
Semi-major axis
6,863.074 km
Eccentricity
0.00012
Inclination
43.0014°
RAAN
190.8207°
Arg. of periapsis
244.5799°
True anomaly
115.5053°
Mean anomaly
115.4926°
Eccentric anomaly
115.49895°
Mean motion
3.81738 °/min
Orbital period
94.31 mins
BSTAR
0.00056012
Loading maneuver chart data...
Computing Atmospheric mass density...
Loading historical data...
Loading historical data...
Loading historical data...
Loading historical data...
Loading historical data...
Loading historical data...
Loading historical data...

Documentation

Showing up to 5 results
|